Location: Lane
(33.5226°N, 79.8788°W)
Time: 19:20:48
(UTC+00:00)

SR - Pass Details

Date: 30 September 2022
Orbit: 577 x 874 km, 66.7° (Epoch: 08 December)

Event Time Altitude Azimuth Distance (km) Brightness Sun altitude
Rises 02:16:08 0° 200° (SSW) 3,362 - -39.2°
Reaches altitude 10° 02:18:32 10° 199° (SSW) 2,461 - -39.6°
Maximum altitude 02:24:17 78° 114° (ESE) 892 - -40.7°
Drops below altitude 10° 02:30:11 10° 29° (NNE) 2,528 - -41.7°
Sets 02:32:41 0° 28° (NNE) 3,460 - -42.2°
